Hourly Data Report for January 11, 2018

All times are specified in Local Standard Time (LST). Add 1 hour to adjust for Daylight Saving Time where and when it is observed.

OTTAWA INTL A
ONTARIO

45°19'00.000" N
75°40'00.000" W
114.90 m
6106001
71628
YOW

Download Data

Hourly Data (January 2018)
Hourly Data Report for January 11, 2018
Temp Definition
°C
Dew Point Temp Definition
°C
Rel Hum Definition
%
Wind Dir Definition
10's deg

Wind Spd Definition
km/h
Visibility Definition
km
Stn Press Definition
kPa
Hmdx Definition


Wind Chill Definition


Weather Definition


TIME
00:00 Legend Double Dagger -2.3 -2.9 96 13 10 4.8 100.36   -6 Freezing Drizzle,Fog
01:00 Legend Double Dagger -0.8 -1.4 96 16 8 4.8 100.32   -4 Freezing Drizzle,Fog
02:00 Legend Double Dagger 1.1 0.2 94 17 9 12.9 100.33     LegendNANA
03:00 Legend Double Dagger 1.8 1.0 94 17 6 11.3 100.33     LegendNANA
04:00 Legend Double Dagger 2.7 1.2 90 19 7 12.9 100.34     Cloudy
05:00 Legend Double Dagger 2.9 1.3 89 19 13 11.3 100.32     Rain
06:00 Legend Double Dagger 2.9 1.3 89 19 8 24.1 100.31     LegendNANA
07:00 Legend Double Dagger 4.2 1.2 81 20 16 24.1 100.27     Cloudy
08:00 Legend Double Dagger 4.8 2.1 83 20 26 24.1 100.26     LegendNANA
09:00 Legend Double Dagger 4.7 2.7 87 20 23 16.1 100.31     LegendNANA
10:00 Legend Double Dagger 5.4 2.7 83 20 12 24.1 100.36     Cloudy
11:00 Legend Double Dagger 6.5 3.3 80 20 17 24.1 100.33     LegendNANA
12:00 Legend Double Dagger 7.0 3.2 76 20 23 24.1 100.23     LegendNANA
13:00 Legend Double Dagger 7.1 3.0 75 20 21 24.1 100.17     Cloudy
14:00 Legend Double Dagger 6.3 3.6 83 18 16 24.1 100.12     LegendNANA
15:00 Legend Double Dagger 6.2 4.1 87 18 18 24.1 100.13     LegendNANA
16:00 Legend Double Dagger 6.2 4.0 86 16 16 24.1 100.10     Cloudy
17:00 Legend Double Dagger 6.3 3.6 83 17 17 24.1 100.09     LegendNANA
18:00 Legend Double Dagger 6.3 3.7 83 16 15 24.1 100.03     LegendNANA
19:00 Legend Double Dagger 6.1 3.9 86 16 12 24.1 100.01     Rain
20:00 Legend Double Dagger 6.3 5.0 91 17 21 12.9 99.87     Rain
21:00 Legend Double Dagger 7.2 6.3 94 19 20 12.9 99.86     Rain
22:00 Legend Double Dagger 7.2 6.6 96 18 23 12.9 99.79     Rain
23:00 Legend Double Dagger 7.2 6.7 97 18 16 2.0 99.72     Rain,Fog

Notes on Data Quality.

Legend

  • E = Estimated
  • M = Missing
  • NA = Not Available
  • ‡ = Partner data that is not subject to review by the National Climate Archives
Date modified: